Location: ??
(35.5052°N, 139.7262°E)
Time: 18:11:57
(UTC+00:00)

Cosmos 1980 - Pass Details

Date: 20 June 2021
Orbit: 839 x 847 km, 71.0° (Epoch: 30 July)

Event Time Altitude Azimuth Distance (km) Brightness Sun altitude
Exits shadow 13:21:54 66° 252° (WSW) 919 3.8 -28.0°
Maximum altitude 13:22:27 71° 292° (WNW) 892 3.8 -28.1°
Drops below altitude 10° 13:28:08 10° 17° (NNE) 2,475 6.8 -28.5°
Sets 13:30:36 0° 19° (NNE) 3,414 7.6 -28.6°
